FW4070 Weather Reports


time (UTC)temp
F
wind
direction
speed
knots
gust
knots
rain 1hr
in
rain 24hr
in
rain mn
in
humidity
%
barometer
mb
20260504001520 55 247 4.3 13.0 0.00 0.00 0.00 50 1010.7
20260504001022 55 234 6.1 12.2 0.00 0.00 0.00 50 1010.7
20260504000509 55 237 3.5 9.6 0.00 0.00 0.00 50 1010.8
20260504000021 55 227 2.6 8.7 0.00 0.00 0.00 50 1010.7
20260503235527 55 245 2.6 7.8 0.00 0.00 0.00 50 1010.8
20260503235035 56 177 2.6 14.8 0.00 0.00 0.00 50 1010.8
20260503234543 56 244 6.1 14.8 0.00 0.00 0.00 49 1010.9
20260503234036 56 235 4.3 12.2 0.00 0.00 0.00 48 1010.9
20260503233519 56 224 7.0 12.2 0.00 0.00 0.00 48 1010.9
20260503233029 56 242 5.2 13.9 0.00 0.00 0.00 49 1011.0
20260503232533 55 238 5.2 13.9 0.00 0.00 0.00 49 1011.0
20260503232045 55 240 6.1 13.9 0.00 0.00 0.00 49 1011.1
20260503231536 55 203 7.0 13.9 0.00 0.00 0.00 49 1011.1
20260503231045 56 231 5.2 13.9 0.00 0.00 0.00 49 1011.1
20260503230522 56 227 4.3 12.2 0.00 0.00 0.00 49 1011.1
20260503230033 56 244 5.2 10.4 0.00 0.00 0.00 48 1011.1
20260503225537 56 234 4.3 14.8 0.00 0.00 0.00 49 1011.1
20260503225031 56 241 5.2 15.6 0.00 0.00 0.00 48 1011.1
20260503224538 56 251 7.0 15.6 0.00 0.00 0.00 48 1011.1
20260503224045 55 252 6.1 10.4 0.00 0.00 0.00 48 1011.2
20260503223529 55 238 4.3 12.2 0.00 0.00 0.00 48 1011.1
20260503223025 55 279 7.0 14.8 0.00 0.00 0.00 47 1011.2
20260503222508 55 238 6.1 12.2 0.00 0.00 0.00 47 1011.2
20260503222051 56 246 5.2 20.0 0.00 0.00 0.00 48 1011.2
20260503221543 56 236 5.2 20.0 0.00 0.00 0.00 47 1011.2
20260503221043 56 244 7.8 17.4 0.00 0.00 0.00 46 1011.3
20260503220550 56 239 8.7 20.0 0.00 0.00 0.00 46 1011.2
20260503220112 56 242 7.8 17.4 0.00 0.00 0.00 47 1011.2
20260503215510 55 263 8.7 20.0 0.00 0.00 0.00 47 1011.2
20260503215057 55 222 8.7 20.0 0.00 0.00 0.00 48 1011.2
20260503214507 56 243 7.0 21.7 0.00 0.00 0.00 49 1011.2
20260503214022 56 258 7.8 16.5 0.00 0.00 0.00 47 1011.2
20260503213534 56 273 7.8 18.2 0.00 0.00 0.00 45 1011.1
20260503213039 56 261 9.6 25.2 0.00 0.00 0.00 43 1011.1
20260503212544 56 243 9.6 18.2 0.00 0.00 0.00 43 1011.1
20260503212051 56 225 11.3 21.7 0.00 0.00 0.00 43 1011.2
20260503211609 56 269 12.2 23.5 0.00 0.00 0.00 42 1011.2
20260503211501 56 239 12.2 23.5 0.00 0.00 0.00 43 1011.3
20260503211011 56 272 9.6 22.6 0.00 0.00 0.00 43 1011.3
20260503210523 56 246 11.3 22.6 0.00 0.00 0.00 42 1011.3
20260503210030 57 221 8.7 21.7 0.00 0.00 0.00 43 1011.3
20260503205535 57 224 11.3 22.6 0.00 0.00 0.00 41 1011.4
20260503205020 57 257 12.2 26.1 0.00 0.00 0.00 41 1011.3
20260503204526 57 258 13.0 26.1 0.00 0.00 0.00 41 1011.3
20260503204035 57 254 11.3 23.5 0.00 0.00 0.00 42 1011.3
20260503203519 57 236 10.4 23.5 0.00 0.00 0.00 42 1011.3
20260503203124 57 270 9.6 24.3 0.00 0.00 0.00 42 1011.4
20260503202505 58 235 12.2 22.6 0.00 0.00 0.00 42 1011.4
20260503202016 58 257 11.3 19.1 0.00 0.00 0.00 43 1011.5
20260503201552 58 290 8.7 19.1 0.00 0.00 0.00 44 1011.4
20260503201024 57 238 9.6 20.0 0.00 0.00 0.00 45 1011.4
20260503200527 57 246 11.3 26.1 0.00 0.00 0.00 44 1011.5
20260503200036 56 281 13.0 26.9 0.00 0.00 0.00 44 1011.6
20260503195516 56 264 11.3 22.6 0.00 0.00 0.00 47 1011.8
20260503195023 57 278 12.2 22.6 0.00 0.00 0.00 45 1011.8
20260503194511 56 265 13.0 22.6 0.00 0.00 0.00 44 1011.9
20260503194017 56 277 12.2 25.2 0.00 0.00 0.00 47 1011.9
20260503193600 56 261 10.4 25.2 0.00 0.00 0.00 46 1012.1
20260503193502 56 284 11.3 25.2 0.00 0.00 0.00 46 1012.0
20260503193005 56 307 11.3 24.3 0.00 0.00 0.00 46 1012.2
20260503192517 56 273 10.4 24.3 0.00 0.00 0.00 46 1012.2
20260503192102 56 278 12.2 20.9 0.00 0.00 0.00 46 1012.2
20260503191515 56 255 11.3 30.4 0.00 0.00 0.00 47 1012.3
20260503191027 56 249 10.4 30.4 0.00 0.00 0.00 46 1012.3
20260503190527 56 237 8.7 20.0 0.00 0.00 0.00 48 1012.4
20260503190020 55 242 11.3 20.0 0.00 0.00 0.00 48 1012.4
20260503185521 56 234 12.2 19.1 0.00 0.00 0.00 46 1012.5
20260503185020 55 246 10.4 20.9 0.00 0.00 0.00 47 1012.6
20260503184507 56 263 11.3 23.5 0.00 0.00 0.00 46 1012.7
20260503184009 55 227 9.6 23.5 0.00 0.00 0.00 48 1012.8
20260503183556 55 251 11.3 21.7 0.00 0.00 0.00 47 1012.7
20260503183502 55 264 12.2 21.7 0.00 0.00 0.00 47 1012.7
20260503183009 55 237 12.2 21.7 0.00 0.00 0.00 46 1012.9
20260503182512 55 253 12.2 20.9 0.00 0.00 0.00 48 1012.8
20260503182027 55 263 9.6 18.2 0.00 0.00 0.00 49 1012.9
20260503181601 55 246 10.4 17.4 0.00 0.00 0.00 49 1013.0
20260503181028 55 242 9.6 15.6 0.00 0.00 0.00 50 1012.9
20260503180530 54 269 8.7 17.4 0.00 0.00 0.00 52 1013.1
20260503180031 54 238 8.7 17.4 0.00 0.00 0.00 52 1013.2
20260503175539 54 255 7.8 18.2 0.00 0.00 0.00 52 1013.2
20260503175046 54 238 8.7 18.2 0.00 0.00 0.00 51 1013.2
20260503174558 55 229 10.4 17.4 0.00 0.00 0.00 50 1013.3
20260503174101 55 248 10.4 20.9 0.00 0.00 0.00 51 1013.3
20260503173509 54 279 9.6 20.9 0.00 0.00 0.00 49 1013.2
20260503173039 54 260 9.6 20.9 0.00 0.00 0.00 48 1013.4
20260503172528 55 288 7.8 17.4 0.00 0.00 0.00 47 1013.3
20260503172034 55 244 9.6 17.4 0.00 0.00 0.00 46 1013.5
20260503171539 56 250 7.8 20.9 0.00 0.00 0.00 43 1013.4
20260503171049 57 238 9.6 18.2 0.00 0.00 0.00 40 1013.4
20260503170553 57 275 9.6 14.8 0.00 0.00 0.00 42 1013.4
20260503150526 51 234 8.7 14.8 0.00 0.00 0.00 46 1015.1
20260503131054 46 243 7.0 17.4 0.00 0.00 0.00 66 1015.6
20260503130558 46 254 9.6 17.4 0.00 0.00 0.00 66 1015.6
20260503110533 39 180 0.9 7.0 0.00 0.00 0.00 79 1015.3
20260503081548 37 184 0.9 3.5 0.00 0.00 0.00 79 1015.5
20260503081055 37 186 0.9 2.6 0.00 0.00 0.00 79 1015.5
20260503080508 37 188 0.0 2.6 0.00 0.00 0.00 79 1015.5
20260503072552 37 192 0.9 3.5 0.00 0.00 0.00 78 1015.5
20260503072100 37 209 0.9 3.5 0.00 0.00 0.00 78 1015.5
20260503071515 37 200 0.0 4.3 0.00 0.00 0.00 78 1015.5
20260503071023 37 204 0.0 4.3 0.00 0.00 0.00 78 1015.5
20260503070525 37 210 0.9 4.3 0.00 0.00 0.00 78 1015.5
20260503055037 38 191 0.0 4.3 0.00 0.00 0.00 77 1015.9
20260503054523 38 180 0.0 5.2 0.00 0.00 0.00 77 1016.0
20260503054030 38 189 0.9 5.2 0.00 0.00 0.00 77 1015.9
20260503053535 38 182 1.7 4.3 0.00 0.00 0.00 78 1015.9
20260503053043 38 188 0.9 4.3 0.00 0.00 0.00 78 1016.0
20260503052531 38 190 0.0 3.5 0.00 0.00 0.00 77 1016.1
20260503052032 38 193 0.0 3.5 0.00 0.00 0.00 77 1016.1
20260503051513 39 232 0.0 1.7 0.00 0.00 0.00 75 1016.1
20260503051025 39 232 0.0 0.9 0.00 0.00 0.00 75 1016.1
20260503050533 40 232 0.0 2.6 0.00 0.00 0.00 74 1016.1
20260503050039 40 232 0.9 6.1 0.00 0.00 0.00 74 1016.1
20260503045544 41 242 1.7 7.8 0.00 0.00 0.00 74 1016.2
20260503045051 41 260 4.3 7.8 0.00 0.00 0.00 74 1016.1
20260503044625 41 242 3.5 10.4 0.00 0.00 0.00 73 1016.1
20260503044005 41 250 6.1 12.2 0.00 0.00 0.00 73 1016.1
20260503043515 41 273 3.5 13.0 0.00 0.00 0.00 74 1016.2
20260503043029 41 261 5.2 13.0 0.00 0.00 0.00 74 1016.2
20260503042535 41 286 4.3 13.0 0.00 0.00 0.00 74 1016.2
20260503042046 41 252 5.2 13.0 0.00 0.00 0.00 74 1016.3
20260503041553 40 253 5.2 10.4 0.00 0.00 0.00 74 1016.3
20260503041059 40 240 4.3 10.4 0.00 0.00 0.00 75 1016.3
20260503040508 41 244 4.3 10.4 0.00 0.00 0.00 74 1016.3
20260503040054 40 282 4.3 9.6 0.00 0.00 0.00 74 1016.3
20260503035554 41 236 4.3 13.0 0.00 0.00 0.00 75 1016.3
20260503035103 40 236 6.1 13.0 0.00 0.00 0.00 75 1016.3
20260503034518 40 286 3.5 8.7 0.00 0.00 0.00 75 1016.4
20260503034027 41 240 2.6 7.8 0.00 0.00 0.00 75 1016.4
20260503033518 41 257 3.5 13.0 0.00 0.00 0.00 74 1016.4
20260503033025 41 248 4.3 13.0 0.00 0.00 0.00 74 1016.4
20260503032532 41 262 5.2 11.3 0.00 0.00 0.00 75 1016.4
20260503032038 41 249 2.6 8.7 0.00 0.00 0.00 74 1016.5
20260503031544 41 236 4.3 9.6 0.00 0.00 0.00 74 1016.5
20260503031030 41 246 4.3 9.6 0.00 0.00 0.00 74 1016.5
20260503030537 41 259 3.5 8.7 0.00 0.00 0.00 73 1016.5
20260503030050 41 249 3.5 8.7 0.00 0.00 0.00 73 1016.5
20260503025553 41 244 4.3 8.7 0.00 0.00 0.00 73 1016.5
20260503025002 41 235 4.3 10.4 0.00 0.00 0.00 73 1016.6
20260503024517 41 257 3.5 10.4 0.00 0.00 0.00 73 1016.6
20260503024026 41 240 5.2 10.4 0.00 0.00 0.00 73 1016.6
20260503023537 41 256 3.5 8.7 0.00 0.00 0.00 73 1016.7
20260503023048 41 231 2.6 7.8 0.00 0.00 0.00 73 1016.7
20260503022552 41 242 2.6 7.8 0.00 0.00 0.00 74 1016.7
20260503022038 41 241 1.7 7.8 0.00 0.00 0.00 74 1016.8
20260503021524 41 236 1.7 4.3 0.00 0.00 0.00 74 1016.8
20260503021025 41 244 0.9 5.2 0.00 0.00 0.00 74 1016.8
20260503020527 41 243 0.9 6.1 0.00 0.00 0.00 74 1016.8
20260503020031 41 265 0.9 8.7 0.00 0.00 0.00 73 1016.8
20260503015512 41 206 3.5 9.6 0.00 0.00 0.00 73 1016.7
20260503015014 41 249 1.7 7.8 0.00 0.00 0.00 73 1016.7
20260503014524 41 238 2.6 7.8 0.00 0.00 0.00 73 1016.7
20260503014007 41 239 0.9 4.3 0.00 0.00 0.00 74 1016.7
20260503013522 41 236 1.7 4.3 0.00 0.00 0.00 73 1016.8
20260503013003 41 260 1.7 7.0 0.00 0.00 0.00 72 1016.8
20260503012520 41 257 1.7 7.8 0.00 0.00 0.00 72 1016.8
20260503012021 41 250 3.5 7.8 0.00 0.00 0.00 72 1016.8
20260503011532 41 236 3.5 7.8 0.00 0.00 0.00 72 1016.8
20260503011035 41 270 1.7 7.8 0.00 0.00 0.00 72 1016.7
20260503010543 41 259 4.3 8.7 0.00 0.00 0.00 72 1016.7
20260503010052 41 234 3.5 8.7 0.00 0.00 0.00 71 1016.7
20260503005607 41 227 3.5 7.0 0.00 0.00 0.00 71 1016.7
20260503005503 41 246 1.7 7.0 0.00 0.00 0.00 70 1016.7
20260503005046 41 242 3.5 7.8 0.00 0.00 0.00 69 1016.7
20260503004536 41 234 3.5 7.8 0.00 0.00 0.00 69 1016.7
20260503004046 41 281 3.5 8.7 0.00 0.00 0.00 68 1016.6
20260503003554 41 246 4.3 7.8 0.00 0.00 0.00 69 1016.6
20260503003106 41 265 3.5 7.8 0.00 0.00 0.00 69 1016.6
20260503002507 41 287 3.5 8.7 0.00 0.00 0.00 69 1016.6
20260503002014 41 242 3.5 8.7 0.00 0.00 0.00 69 1016.6